Location: Dalton
(34.7700°N, 84.9700°W)
Time: 19:04:01
(UTC-04:00)

Tiangong 1 - Pass Details

Date: 14 October 2017
Orbit: 292 x 319 km, 42.8° (Epoch: 22 October)

Event Time Altitude Azimuth Distance (km) Brightness Sun altitude
Rises 20:03:21 0° 303° (WNW) 2,042 5.7 -12.5°
Reaches altitude 10° 20:05:28 10° 314° (NW) 1,206 4.2 -13.0°
Maximum altitude 20:07:55 31° 19° (NNE) 579 1.8 -13.5°
Enters shadow 20:08:34 27° 49° (NE) 641 1.7 -13.6°
